FW5929 Weather Reports


Display with metric or nautical units.
time (UTC)temp
F
wind
direction
speed
MPH
gust
MPH
rain 1hr
in
rain 24hr
in
rain mn
in
humidity
%
barometer
mb
20260902220822 55 9 1.0 1.0 0.00 0.00 0.00 84 1023.3
20260902220339 56 9 1.0 1.0 0.00 0.00 0.00 83 1023.2
20260902215853 56 9 0.0 1.0 0.00 0.00 0.00 83 1023.2
20260902215331 56 9 0.0 2.0 0.00 0.00 0.00 83 1023.2
20260902214846 56 9 1.0 2.0 0.00 0.00 0.00 82 1023.2
20260902214343 56 9 1.0 2.0 0.00 0.00 0.00 82 1023.2
20260902213817 56 9 1.0 2.0 0.00 0.00 0.00 82 1023.1
20260902213315 57 9 1.0 2.0 0.00 0.00 0.00 81 1023.1
20260902212831 57 9 0.0 1.0 0.00 0.00 0.00 81 1023.1
20260902212328 57 9 0.0 1.0 0.00 0.00 0.00 80 1023.1
20260902211823 57 9 1.0 2.0 0.00 0.00 0.00 80 1023.1
20260902211323 57 9 1.0 2.0 0.00 0.00 0.00 80 1023.1
20260902210819 57 9 1.0 1.0 0.00 0.00 0.00 81 1023.1
20260902210318 58 9 0.0 1.0 0.00 0.00 0.00 81 1023.1
20260902205833 58 9 0.0 1.0 0.00 0.00 0.00 81 1023.0
20260902205332 58 9 0.0 1.0 0.00 0.00 0.00 81 1022.9
20260902204844 58 9 0.0 1.0 0.00 0.00 0.00 80 1022.8
20260902204341 59 9 0.0 1.0 0.00 0.00 0.00 80 1022.9
20260902203829 59 9 0.0 1.0 0.00 0.00 0.00 79 1022.8
20260902203326 60 9 0.0 1.0 0.00 0.00 0.00 78 1022.8
20260902202822 60 9 0.0 1.0 0.00 0.00 0.00 77 1022.8
20260902202319 61 9 0.0 0.0 0.00 0.00 0.00 77 1022.8
20260902201935 61 9 0.0 1.0 0.00 0.00 0.00 75 1022.8
20260902201318 61 9 0.0 1.0 0.00 0.00 0.00 75 1022.9
20260902200815 61 9 0.0 1.0 0.00 0.00 0.00 76 1022.9
20260902200329 61 9 0.0 1.0 0.00 0.00 0.00 74 1022.9
20260902195845 62 9 0.0 1.0 0.00 0.00 0.00 75 1022.9
20260902195342 62 9 1.0 1.0 0.00 0.00 0.00 73 1022.9
20260902194816 62 9 0.0 2.0 0.00 0.00 0.00 74 1022.9
20260902194315 62 9 1.0 2.0 0.00 0.00 0.00 74 1022.8
20260902193829 62 9 0.0 1.0 0.00 0.00 0.00 73 1022.8
20260902193328 62 9 0.0 1.0 0.00 0.00 0.00 72 1022.8
20260902192823 63 9 0.0 1.0 0.00 0.00 0.00 72 1022.7
20260902192321 63 9 0.0 1.0 0.00 0.00 0.00 71 1022.8
20260902191818 63 9 0.0 1.0 0.00 0.00 0.00 71 1022.8
20260902191336 63 9 0.0 0.0 0.00 0.00 0.00 70 1022.7
20260902190854 63 9 0.0 0.0 0.00 0.00 0.00 68 1022.8
20260902190330 64 9 0.0 1.0 0.00 0.00 0.00 67 1022.7
20260902185826 65 9 0.0 2.0 0.00 0.00 0.00 66 1022.7
20260902185323 66 360 2.0 4.0 0.00 0.00 0.00 62 1022.6
20260902184819 66 360 3.0 4.0 0.00 0.00 0.00 61 1022.5
20260902184315 67 355 3.0 5.0 0.00 0.00 0.00 60 1022.5
20260902183829 67 346 3.0 5.0 0.00 0.00 0.00 60 1022.5
20260902183326 67 331 3.0 5.0 0.00 0.00 0.00 60 1022.6
20260902182845 67 323 4.0 5.0 0.00 0.00 0.00 59 1022.6
20260902182341 67 333 4.0 5.0 0.00 0.00 0.00 59 1022.5
20260902181815 67 325 3.0 4.0 0.00 0.00 0.00 58 1022.5
20260902181333 67 323 3.0 4.0 0.00 0.00 0.00 59 1022.4
20260902180827 67 309 2.0 3.0 0.00 0.00 0.00 59 1022.4
20260902180322 68 309 2.0 3.0 0.00 0.00 0.00 59 1022.4
20260902175838 68 298 2.0 3.0 0.00 0.00 0.00 57 1022.3
20260902175337 68 286 2.0 3.0 0.00 0.00 0.00 58 1022.2
20260902174833 69 291 0.0 2.0 0.00 0.00 0.00 56 1022.2
20260902174330 70 291 0.0 2.0 0.00 0.00 0.00 54 1022.2
20260902173825 70 291 1.0 2.0 0.00 0.00 0.00 54 1022.3
20260902173344 70 291 1.0 5.0 0.00 0.00 0.00 53 1022.2
20260902172832 71 291 2.0 5.0 0.00 0.00 0.00 51 1022.1
20260902172329 71 284 2.0 3.0 0.00 0.00 0.00 51 1022.1
20260902171823 71 284 2.0 4.0 0.00 0.00 0.00 51 1022.1
20260902171341 72 284 1.0 4.0 0.00 0.00 0.00 49 1022.2
20260902170815 72 271 1.0 7.0 0.00 0.00 0.00 49 1022.1
20260902170333 72 278 2.0 7.0 0.00 0.00 0.00 45 1022.1
20260902165830 73 290 2.0 8.0 0.00 0.00 0.00 45 1022.0
20260902165326 73 292 4.0 8.0 0.00 0.00 0.00 45 1022.0
20260902164821 73 271 2.0 10.0 0.00 0.00 0.00 45 1022.0
20260902164319 74 237 4.0 10.0 0.00 0.00 0.00 44 1022.2
20260902163836 74 226 3.0 8.0 0.00 0.00 0.00 46 1022.1
20260902163313 74 278 1.0 7.0 0.00 0.00 0.00 45 1022.1
20260902162830 74 219 2.0 13.0 0.00 0.00 0.00 44 1022.2
20260902162348 74 261 6.0 13.0 0.00 0.00 0.00 44 1022.2
20260902161823 73 272 3.0 10.0 0.00 0.00 0.00 44 1022.2
20260902161342 74 262 5.0 10.0 0.00 0.00 0.00 42 1022.3
20260902160819 74 237 5.0 13.0 0.00 0.00 0.00 42 1022.3
20260902160316 74 224 6.0 13.0 0.00 0.00 0.00 42 1022.2
20260902155832 74 267 3.0 12.0 0.00 0.00 0.00 42 1022.2
20260902155329 75 218 5.0 12.0 0.00 0.00 0.00 42 1022.4
20260902154825 74 259 2.0 10.0 0.00 0.00 0.00 43 1022.3
20260902154322 74 280 6.0 9.0 0.00 0.00 0.00 43 1022.3
20260902153820 74 277 4.0 12.0 0.00 0.00 0.00 43 1022.2
20260902153317 74 295 4.0 12.0 0.00 0.00 0.00 42 1022.3
20260902152855 75 257 5.0 12.0 0.00 0.00 0.00 43 1022.4
20260902152314 74 254 8.0 11.0 0.00 0.00 0.00 44 1022.2
20260902151831 74 265 5.0 11.0 0.00 0.00 0.00 44 1022.2
20260902151330 74 242 6.0 11.0 0.00 0.00 0.00 44 1022.2
20260902150824 75 285 7.0 11.0 0.00 0.00 0.00 44 1022.4
20260902150321 75 248 3.0 10.0 0.00 0.00 0.00 44 1022.3
20260902145816 75 295 5.0 10.0 0.00 0.00 0.00 43 1022.4
20260902145315 75 311 4.0 9.0 0.00 0.00 0.00 43 1022.4
20260902144830 75 211 3.0 12.0 0.00 0.00 0.00 43 1022.4
20260902144329 75 173 3.0 12.0 0.00 0.00 0.00 43 1022.5
20260902143826 76 226 4.0 11.0 0.00 0.00 0.00 41 1022.5
20260902143324 76 219 5.0 10.0 0.00 0.00 0.00 42 1022.6
20260902142819 76 280 5.0 10.0 0.00 0.00 0.00 42 1022.4
20260902142318 76 299 5.0 11.0 0.00 0.00 0.00 43 1022.5
20260902141833 76 269 7.0 13.0 0.00 0.00 0.00 43 1022.6
20260902141353 75 308 9.0 13.0 0.00 0.00 0.00 44 1022.6
20260902140827 75 252 8.0 12.0 0.00 0.00 0.00 43 1022.6
20260902140325 75 271 8.0 12.0 0.00 0.00 0.00 45 1022.6
20260902135815 74 299 2.0 12.0 0.00 0.00 0.00 47 1022.6
20260902135314 74 261 9.0 12.0 0.00 0.00 0.00 45 1022.5
20260902134831 76 304 9.0 12.0 0.00 0.00 0.00 44 1022.5
20260902134329 77 325 2.0 12.0 0.00 0.00 0.00 43 1022.5
20260902133844 77 289 6.0 11.0 0.00 0.00 0.00 43 1022.5
20260902133320 77 279 4.0 9.0 0.00 0.00 0.00 40 1022.5
20260902132815 78 250 5.0 9.0 0.00 0.00 0.00 41 1022.6
20260902132400 76 336 4.0 10.0 0.00 0.00 0.00 45 1022.7
20260902131833 76 270 3.0 10.0 0.00 0.00 0.00 44 1022.7
20260902131330 76 340 4.0 12.0 0.00 0.00 0.00 42 1022.7
20260902130825 76 271 4.0 12.0 0.00 0.00 0.00 46 1022.8
20260902130323 76 227 5.0 14.0 0.00 0.00 0.00 42 1022.9
20260902125818 76 284 7.0 15.0 0.00 0.00 0.00 44 1022.8
20260902125316 76 321 11.0 15.0 0.00 0.00 0.00 44 1022.9
20260902124831 76 307 3.0 11.0 0.00 0.00 0.00 43 1022.8
20260902124350 75 321 7.0 13.0 0.00 0.00 0.00 44 1022.9
20260902123821 75 302 9.0 14.0 0.00 0.00 0.00 42 1022.9
20260902123335 76 344 9.0 13.0 0.00 0.00 0.00 43 1022.9
20260902122831 75 284 7.0 12.0 0.00 0.00 0.00 42 1022.9
20260902122350 76 313 6.0 15.0 0.00 0.00 0.00 45 1022.8
20260902121833 76 313 9.0 15.0 0.00 0.00 0.00 44 1022.8
20260902121331 76 13 2.0 12.0 0.00 0.00 0.00 44 1022.8
20260902120828 75 15 5.0 12.0 0.00 0.00 0.00 44 1022.8
20260902120326 74 318 5.0 10.0 0.00 0.00 0.00 46 1022.9
20260902115823 74 278 5.0 10.0 0.00 0.00 0.00 44 1022.9
20260902115321 73 292 5.0 9.0 0.00 0.00 0.00 46 1023.1
20260902114817 73 283 4.0 10.0 0.00 0.00 0.00 47 1023.1
20260902114334 73 288 5.0 10.0 0.00 0.00 0.00 47 1023.1
20260902113830 74 263 6.0 12.0 0.00 0.00 0.00 46 1023.1
20260902113346 74 270 5.0 12.0 0.00 0.00 0.00 48 1023.0
20260902112820 73 136 3.0 11.0 0.00 0.00 0.00 49 1023.1
20260902112318 74 259 6.0 11.0 0.00 0.00 0.00 46 1023.1
20260902111828 75 264 7.0 10.0 0.00 0.00 0.00 47 1023.1
20260902111325 75 263 8.0 11.0 0.00 0.00 0.00 46 1023.2
20260902110820 75 201 5.0 12.0 0.00 0.00 0.00 47 1023.3
20260902110317 75 265 4.0 11.0 0.00 0.00 0.00 48 1023.3
20260902105831 74 166 3.0 11.0 0.00 0.00 0.00 51 1023.3
20260902105329 74 216 5.0 11.0 0.00 0.00 0.00 48 1023.4
20260902104825 73 247 3.0 12.0 0.00 0.00 0.00 50 1023.3
20260902104323 73 221 7.0 12.0 0.00 0.00 0.00 49 1023.4
20260902103818 73 83 4.0 8.0 0.00 0.00 0.00 51 1023.4
20260902103315 73 208 2.0 7.0 0.00 0.00 0.00 51 1023.5
20260902102831 72 181 2.0 10.0 0.00 0.00 0.00 52 1023.4
20260902102329 72 218 3.0 9.0 0.00 0.00 0.00 53 1023.5
20260902101826 72 222 6.0 9.0 0.00 0.00 0.00 52 1023.5
20260902101322 72 259 5.0 9.0 0.00 0.00 0.00 54 1023.5
20260902100834 71 217 0.0 9.0 0.00 0.00 0.00 54 1023.5
20260902100331 72 257 4.0 9.0 0.00 0.00 0.00 55 1023.6
20260902095827 71 307 2.0 10.0 0.00 0.00 0.00 55 1023.5
20260902095324 71 286 4.0 10.0 0.00 0.00 0.00 56 1023.5
20260902094839 70 74 2.0 5.0 0.00 0.00 0.00 56 1023.4
20260902094317 70 250 2.0 7.0 0.00 0.00 0.00 56 1023.5
20260902093833 70 317 5.0 6.0 0.00 0.00 0.00 57 1023.6
20260902093330 70 184 2.0 7.0 0.00 0.00 0.00 60 1023.5
20260902092843 70 323 4.0 8.0 0.00 0.00 0.00 59 1023.6
20260902092320 69 288 4.0 8.0 0.00 0.00 0.00 60 1023.6
20260902091836 69 288 3.0 5.0 0.00 0.00 0.00 58 1023.6
20260902091356 69 355 1.0 8.0 0.00 0.00 0.00 60 1023.5
20260902090827 70 360 4.0 8.0 0.00 0.00 0.00 59 1023.4
20260902090347 70 251 2.0 9.0 0.00 0.00 0.00 57 1023.4
20260902085820 70 325 5.0 9.0 0.00 0.00 0.00 59 1023.4
20260902085317 69 360 4.0 6.0 0.00 0.00 0.00 59 1023.4
20260902084832 69 347 4.0 6.0 0.00 0.00 0.00 62 1023.3
20260902084329 69 265 1.0 6.0 0.00 0.00 0.00 60 1023.3
20260902083823 69 324 3.0 5.0 0.00 0.00 0.00 62 1023.2
20260902083340 68 40 2.0 5.0 0.00 0.00 0.00 63 1023.2
20260902082834 68 48 3.0 5.0 0.00 0.00 0.00 63 1023.2
20260902082331 68 325 3.0 5.0 0.00 0.00 0.00 63 1023.1
20260902081824 67 348 3.0 6.0 0.00 0.00 0.00 63 1023.2
20260902081320 67 331 4.0 6.0 0.00 0.00 0.00 66 1023.2
20260902080836 66 343 4.0 6.0 0.00 0.00 0.00 67 1023.2
20260902080331 66 34 4.0 6.0 0.00 0.00 0.00 70 1023.1
20260902075827 66 360 3.0 8.0 0.00 0.00 0.00 69 1023.1
20260902075324 66 10 4.0 8.0 0.00 0.00 0.00 69 1023.1
20260902074818 65 13 6.0 9.0 0.00 0.00 0.00 69 1023.1
20260902074315 64 355 6.0 8.0 0.00 0.00 0.00 71 1023.1
20260902073829 64 9 5.0 8.0 0.00 0.00 0.00 74 1023.0
20260902073326 63 355 5.0 8.0 0.00 0.00 0.00 74 1023.0
20260902072821 63 346 5.0 8.0 0.00 0.00 0.00 74 1022.9
20260902072318 63 9 4.0 8.0 0.00 0.00 0.00 76 1022.9
20260902071831 62 338 1.0 3.0 0.00 0.00 0.00 78 1022.8
20260902071350 62 74 1.0 3.0 0.00 0.00 0.00 78 1022.8
20260902070817 61 44 2.0 5.0 0.00 0.00 0.00 80 1022.7
20260902070315 61 39 3.0 6.0 0.00 0.00 0.00 80 1022.7
20260902065824 60 10 4.0 6.0 0.00 0.00 0.00 81 1022.7
20260902065321 59 355 4.0 6.0 0.00 0.00 0.00 81 1022.8
20260902064836 59 25 2.0 4.0 0.00 0.00 0.00 83 1022.8
20260902064332 58 19 2.0 3.0 0.00 0.00 0.00 84 1022.8
20260902063827 58 40 2.0 5.0 0.00 0.00 0.00 86 1022.7
20260902063325 57 40 1.0 8.0 0.00 0.00 0.00 87 1022.6
20260902062820 56 14 4.0 8.0 0.00 0.00 0.00 89 1022.7
20260902062338 55 26 2.0 3.0 0.00 0.00 0.00 89 1022.7
20260902061859 55 34 2.0 6.0 0.00 0.00 0.00 90 1022.7
20260902061336 54 336 3.0 6.0 0.00 0.00 0.00 91 1022.7
20260902060829 53 355 0.0 1.0 0.00 0.00 0.00 91 1022.7
20260902060325 53 355 0.0 3.0 0.00 0.00 0.00 91 1022.6
20260902055821 52 355 1.0 3.0 0.00 0.00 0.00 91 1022.5
20260902055318 52 355 0.0 1.0 0.00 0.00 0.00 91 1022.4
20260902054833 52 355 0.0 1.0 0.00 0.00 0.00 91 1022.5
20260902054330 52 355 1.0 2.0 0.00 0.00 0.00 90 1022.5
20260902053846 52 355 1.0 2.0 0.00 0.00 0.00 90 1022.5
20260902053323 52 355 1.0 2.0 0.00 0.00 0.00 90 1022.4
20260902052818 52 355 0.0 1.0 0.00 0.00 0.00 90 1022.3
20260902052336 52 355 0.0 2.0 0.00 0.00 0.00 90 1022.3
20260902051826 52 355 1.0 4.0 0.00 0.00 0.00 89 1022.3
20260902051321 53 355 2.0 4.0 0.00 0.00 0.00 90 1022.3
20260902050837 53 341 3.0 4.0 0.00 0.00 0.00 89 1022.2
20260902050354 53 355 2.0 3.0 0.00 0.00 0.00 89 1022.2
20260902045830 53 9 1.0 4.0 0.00 0.00 0.00 89 1022.2
20260902045326 54 9 1.0 4.0 0.00 0.00 0.00 89 1022.2
20260902044823 54 343 3.0 4.0 0.00 0.00 0.00 89 1022.2
20260902044320 53 346 2.0 4.0 0.00 0.00 0.00 90 1022.2
20260902043817 53 346 2.0 4.0 0.00 0.00 0.00 90 1022.2
20260902043315 53 9 2.0 5.0 0.00 0.00 0.00 90 1022.2
20260902042831 53 311 2.0 8.0 0.00 0.00 0.00 90 1022.2
20260902042351 53 327 5.0 8.0 0.00 0.00 0.00 91 1022.2
20260902041825 53 38 1.0 2.0 0.00 0.00 0.00 90 1022.2
20260902041323 53 38 1.0 2.0 0.00 0.00 0.00 90 1022.2
20260902040839 53 38 1.0 2.0 0.00 0.00 0.00 90 1022.1
20260902040317 53 38 0.0 2.0 0.00 0.00 0.00 90 1022.1
20260902035832 53 38 1.0 3.0 0.00 0.00 0.00 89 1022.2
20260902035331 53 38 2.0 3.0 0.00 0.00 0.00 90 1022.4
20260902034825 53 38 2.0 3.0 0.00 0.00 0.00 90 1022.3
20260902034322 53 38 1.0 3.0 0.00 0.00 0.00 90 1022.3
20260902033837 53 38 1.0 2.0 0.00 0.00 0.00 90 1022.2
20260902033333 53 38 0.0 3.0 0.00 0.00 0.00 90 1022.1
20260902032825 53 38 2.0 3.0 0.00 0.00 0.00 90 1022.2
20260902032322 53 38 2.0 3.0 0.00 0.00 0.00 90 1022.2
20260902031838 53 38 0.0 1.0 0.00 0.00 0.00 89 1022.2
20260902031358 53 38 0.0 1.0 0.00 0.00 0.00 89 1022.3
20260902030852 53 38 0.0 1.0 0.00 0.00 0.00 89 1022.3
20260902030330 53 38 0.0 2.0 0.00 0.00 0.00 89 1022.3
20260902025843 53 38 1.0 2.0 0.00 0.00 0.00 89 1022.3
20260902025321 53 38 1.0 3.0 0.00 0.00 0.00 89 1022.3
20260902024816 54 38 0.0 3.0 0.00 0.00 0.00 88 1022.3
20260902024335 54 38 2.0 3.0 0.00 0.00 0.00 89 1022.3
20260902023829 53 38 1.0 2.0 0.00 0.00 0.00 88 1022.2
20260902023326 54 38 1.0 2.0 0.00 0.00 0.00 88 1022.3
20260902022822 54 38 0.0 2.0 0.00 0.00 0.00 88 1022.4
20260902022322 54 38 1.0 2.0 0.00 0.00 0.00 87 1022.3
20260902021817 54 38 1.0 3.0 0.00 0.00 0.00 87 1022.3
20260902021316 54 38 2.0 3.0 0.00 0.00 0.00 87 1022.3
20260902020833 55 38 0.0 4.0 0.00 0.00 0.00 86 1022.4
20260902020329 55 38 2.0 4.0 0.00 0.00 0.00 86 1022.3
20260902015825 55 38 2.0 4.0 0.00 0.00 0.00 87 1022.4
20260902015322 55 38 2.0 4.0 0.00 0.00 0.00 87 1022.4
20260902014837 55 38 2.0 3.0 0.00 0.00 0.00 87 1022.5
20260902014315 55 38 2.0 8.0 0.00 0.00 0.00 85 1022.4
20260902013830 56 342 4.0 8.0 0.00 0.00 0.00 85 1022.5
20260902013329 56 316 6.0 8.0 0.00 0.00 0.00 86 1022.5
20260902012823 55 326 4.0 5.0 0.00 0.00 0.00 87 1022.4
20260902012321 54 22 2.0 3.0 0.00 0.00 0.00 87 1022.4
20260902011817 55 22 0.0 2.0 0.00 0.00 0.00 86 1022.2
20260902011312 55 22 0.0 3.0 0.00 0.00 0.00 85 1022.2
20260902010833 56 22 0.0 4.0 0.00 0.00 0.00 85 1022.3
20260902010330 56 22 2.0 4.0 0.00 0.00 0.00 86 1022.3
20260902005825 55 22 3.0 4.0 0.00 0.00 0.00 87 1022.3
20260902005321 55 355 2.0 3.0 0.00 0.00 0.00 86 1022.6
20260902004817 55 355 1.0 2.0 0.00 0.00 0.00 87 1022.5
20260902004315 55 355 1.0 2.0 0.00 0.00 0.00 86 1022.5
20260902003831 55 355 1.0 3.0 0.00 0.00 0.00 85 1022.5
20260902003326 55 355 1.0 5.0 0.00 0.00 0.00 85 1022.5
20260902002842 55 355 2.0 6.0 0.00 0.00 0.00 85 1022.6
20260902002317 55 339 6.0 6.0 0.00 0.00 0.00 85 1022.6
20260902001814 55 355 4.0 8.0 0.00 0.00 0.00 85 1022.7
20260902001353 55 346 5.0 8.0 0.00 0.00 0.00 85 1022.6
20260902000827 55 355 6.0 6.0 0.00 0.00 0.00 85 1022.6
20260902000345 55 347 3.0 8.0 0.00 0.00 0.00 85 1022.6
20260901235821 55 340 5.0 8.0 0.00 0.00 0.00 85 1022.6
20260901235319 55 338 6.0 9.0 0.00 0.00 0.00 85 1022.5
20260901234816 55 345 7.0 11.0 0.00 0.00 0.00 85 1022.6
20260901234314 55 336 6.0 11.0 0.00 0.00 0.00 86 1022.5
20260901233835 54 326 10.0 11.0 0.00 0.00 0.00 86 1022.6
20260901233353 54 342 5.0 8.0 0.00 0.00 0.00 86 1022.6
20260901232847 53 340 6.0 8.0 0.00 0.00 0.00 86 1022.6
20260901232344 54 334 2.0 8.0 0.00 0.00 0.00 86 1022.5
20260901231818 54 340 6.0 8.0 0.00 0.00 0.00 85 1022.6
20260901231315 54 11 1.0 3.0 0.00 0.00 0.00 86 1022.6
20260901230832 54 360 1.0 3.0 0.00 0.00 0.00 86 1022.6
20260901230329 54 18 1.0 3.0 0.00 0.00 0.00 86 1022.7
20260901225843 54 18 1.0 3.0 0.00 0.00 0.00 87 1022.7
20260901225319 54 18 0.0 1.0 0.00 0.00 0.00 87 1022.7
20260901224815 54 18 0.0 1.0 0.00 0.00 0.00 86 1022.7
20260901224333 54 18 0.0 1.0 0.00 0.00 0.00 86 1022.6
20260901223848 54 18 0.0 1.0 0.00 0.00 0.00 86 1022.6
20260901223324 54 18 0.0 2.0 0.00 0.00 0.00 85 1022.6
20260901222839 54 18 0.0 2.0 0.00 0.00 0.00 85 1022.6
20260901222332 55 18 1.0 2.0 0.00 0.00 0.00 84 1022.6
20260901221826 55 18 1.0 2.0 0.00 0.00 0.00 84 1022.6
20260901221324 55 18 0.0 2.0 0.00 0.00 0.00 83 1022.6